Погода в Шабельковке

Украина / Донецкая область     48°44′57″N   37°29′11″E
темп.,
°C
ветер,
м/с
пор.,
м/с
влажн.,
%
обл.,
%
осадки,
мм/ч
давл.,
гПа
погр.,
м
13 мая, чт
чт1300:00+7юв399512 0.4 1014183
03:00+7юв229686 0.4 101415
06:00+9юв239626 0.0 101468
09:00+14ю3471100 0.0 1014648
12:00+19ю46542 0.0 10141439
15:00+21ююз465099 0.0 10131622
18:00+20юз2461100 0.0 1013184
21:00+15юв227277 0.0 101411
14 мая, пт
пт1400:00+14в228080 0.0 101315
03:00+13в348993 0.0 101248
06:00+14в398941 0.0 1012193
09:00+19юв5971100 0.0 1012581
12:00+22в5559100 0.0 1011633
15:00+25юв575099 0.0 10101218
18:00+25ююз3659100 0.0 1009256
21:00+18ю47739 0.0 1010107
15 мая, сб
сб1500:00+15юз35830 0.0 101176
03:00+13зюз228464 0.0 101216
06:00+14з1182100 0.0 101331
09:00+20з23594 0.0 1014635
12:00+23зюз344713 0.0 10141380
15:00+24юз344358 0.0 10141963
18:00+23зюз235291 0.0 1014809
21:00+18ссз1161100 0.0 101411
16 мая, вс
вс1600:00+16ссв11672 0.0 101411
03:00+15св227211 0.0 101418
06:00+15св37795 0.0 1013140
09:00+21всв576297 0.0 1013498
12:00+25св6752100 0.0 10121227
15:00+27св675244 0.0 10101653
18:00+25в476068 0.0 1009436
21:00+19всв337093 0.0 100930
17 мая, пн
пн1700:00+17св337077 0.0 100847
03:00+15всв347938 0.0 100752
06:00+16в311725 0.0 1007237
09:00+22вюв7134837 0.0 1007770
12:00+25юв8104211 0.0 10061230
15:00+27ююв67415 0.0 10061396
18:00+26вюв46545 0.0 1006317
21:00+20юв3370100 0.0 100733